This is the latest recevied weather packets stored in our database for station/object AD0YN. If no packets are shown the sender has not sent any weather packets the latest 10 day(s).
| Time | Temp. | Humidity | Pressure | Rain* | Wind** | Luminosity | Snow |
|---|---|---|---|---|---|---|---|
| 1777762403 | 17.78° C | 27% | 1017.9 hPa | 0 mm | - | 301 W/m² | - |
| 1777762100 | 17.22° C | 30% | 1018.2 hPa | 0 mm | - | 329 W/m² | - |
| 1777761796 | 17.22° C | 29% | 1017.9 hPa | 0 mm | - | 345 W/m² | - |
| 1777761494 | 17.22° C | 29% | 1018 hPa | 0 mm | - | 342 W/m² | - |
| 1777761191 | 17.22° C | 28% | 1018 hPa | 0 mm | - | 385 W/m² | - |
| 1777760889 | 17.78° C | 29% | 1018.3 hPa | 0 mm | - | 399 W/m² | - |
| 1777760586 | 17.22° C | 29% | 1018.1 hPa | 0 mm | - | 419 W/m² | - |
| 1777760282 | 17.22° C | 30% | 1018.3 hPa | 0 mm | - | 431 W/m² | - |
| 1777759978 | 17.22° C | 29% | 1018.3 hPa | 0 mm | - | 463 W/m² | - |
| 1777759675 | 17.78° C | 27% | 1018.3 hPa | 0 mm | - | 479 W/m² | - |
| 1777759371 | 18.33° C | 31% | 1018.2 hPa | 0 mm | - | 498 W/m² | - |
| 1777759068 | 17.78° C | 29% | 1018.4 hPa | 0 mm | - | 502 W/m² | - |
| 1777758765 | 17.22° C | 31% | 1018.5 hPa | 0 mm | - | 526 W/m² | - |
| 1777758462 | 17.22° C | 35% | 1018.3 hPa | 0 mm | - | 539 W/m² | - |
| 1777758159 | 17.22° C | 29% | 1018.4 hPa | 0 mm | - | 562 W/m² | - |
| 1777757856 | 17.78° C | 34% | 1018.5 hPa | 0 mm | - | 578 W/m² | - |
| 1777757554 | 17.78° C | 29% | 1018.6 hPa | 0 mm | - | 594 W/m² | - |
| 1777757252 | 17.78° C | 30% | 1018.5 hPa | 0 mm | - | 611 W/m² | - |
| 1777756950 | 17.22° C | 32% | 1018.7 hPa | 0 mm | - | 627 W/m² | - |
| 1777756646 | 17.22° C | 28% | 1018.7 hPa | 0 mm | - | 641 W/m² | - |
| 1777756343 | 16.67° C | 31% | 1018.6 hPa | 0 mm | - | 660 W/m² | - |
| 1777756040 | 16.67° C | 30% | 1018.8 hPa | 0 mm | - | 676 W/m² | - |
| 1777755737 | 16.67° C | 31% | 1018.8 hPa | 0 mm | - | 690 W/m² | - |
| 1777755434 | 17.22° C | 31% | 1018.7 hPa | 0 mm | - | 705 W/m² | - |
| 1777755130 | 17.78° C | 30% | 1018.7 hPa | 0 mm | - | 710 W/m² | - |
* Rain latest hour (hover to see other rain measurements)
** Current wind speed in m/s (hover to see current wind gust speed)